CAPE
0 0 0 0 0 0 0 0 0 0 0 0 0 0 0 0 0 0 0 0 0 0 0 0 4 5 11 9 0 17 3 8 11 29 4 3 1 1 2 2 2 2 5
0 0 0 0 0 0 0 0 0 0 0 0 0 0 0 0 0 0 0 0 0 0 0 0 0 0 0 2 4 4 3 3 9 11 2 3 3 0 1 2 3 0 5
0 0 0 0 0 0 0 0 0 0 0 0 0 0 0 0 0 0 0 0 2 1 0 0 0 0 0 0 1 0 2 3 7 9 3 2 0 0 0 0 0 2 3
0 0 0 0 0 0 0 0 0 0 0 0 0 0 0 0 0 0 0 0 6 0 0 0 0 0 0 14 20 0 2 1 2 1 3 4 0 0 1 1 4 2 1
0 0 0 0 0 0 0 0 0 0 0 0 0 0 0 0 0 0 0 0 16 0 0 0 0 1 24 25 62 0 0 1 0 0 2 0 0 1 1 3 2 4 1
0 0 0 0 0 0 0 0 0 0 0 0 0 0 0 2 0 0 0 0 1 2 12 0 0 0 0 0 31 5 0 1 0 0 1 1 3 1 3 2 0 0 7
0 0 0 0 0 0 0 0 0 0 0 0 0 0 0 9 0 0 0 0 0 4 14 0 0 0 0 0 0 1 0 0 0 0 1 1 0 0 0 0 0 5 1
0 0 0 0 0 0 0 1 3 4 3 0 0 2 0 0 0 0 0 0 0 11 27 1 0 0 0 0 0 0 0 2 1 0 0 0 1 0 0 3 2 6 0
0 0 0 0 0 6 0 0 9 7 9 1 0 0 0 0 0 0 0 0 0 0 3 10 10 0 0 0 0 0 0 1 0 0 0 0 0 0 0 1 2 1 0
0 0 0 0 5 3 0 4 8 6 14 2 14 0 0 0 0 0 0 0 0 0 0 0 0 0 0 0 0 2 1 1 1 0 10 10 0 0 0 0 1 16 4
0 0 0 0 0 0 0 0 9 2 0 4 0 0 0 0 0 0 0 0 0 0 0 0 0 0 1 0 0 1 1 0 0 4 25 18 36 38 10 3 0 2 5
0 0 1 0 0 0 0 0 3 0 7 0 0 0 0 0 0 0 0 0 0 0 0 0 0 0 4 7 0 0 0 0 3 13 19 1 0 9 1 1 0 0 0
0 0 0 0 0 0 0 2 0 0 0 0 0 0 0 0 0 0 0 0 0 0 0 0 3 11 12 13 0 0 0 0 2 4 6 1 0 0 1 10 3 0 0
0 0 0 0 0 0 0 0 0 0 0 0 0 0 0 0 0 0 0 0 0 0 0 4 12 2 2 6 8 7 2 15 1 5 3 3 1 1 18 0 0 11 2
0 0 0 0 0 0 0 0 3 5 6 1 0 0 0 0 0 0 0 0 0 0 0 19 31 18 28 39 22 28 30 9 13 0 1 3 1 0 0 0 6 0 4
0 0 0 0 0 0 0 0 0 1 5 0 0 0 0 0 0 0 0 0 0 0 3 17 36 43 53 52 33 27 36 34 24 29 2 2 1 2 2 0 0 0 6
0 0 0 0 0 0 0 2 3 0 0 0 0 0 0 0 0 0 0 0 0 0 2 5 27 45 46 53 46 22 12 1 0 2 5 12 1 2 0 2 0 2 1
0 0 0 0 0 0 0 1 0 0 0 0 0 0 0 0 0 0 0 0 0 1 11 15 23 44 26 21 36 33 0 0 0 0 14 33 5 4 7 2 3 3 5
0 0 0 0 0 0 0 0 1 0 2 0 0 0 0 0 0 0 0 0 0 0 4 9 7 27 15 1 7 46 19 0 0 0 0 0 2 4 6 13 3 0 0
0 0 0 0 0 0 2 2 1 0 3 0 0 0 0 0 0 0 0 0 0 0 1 10 8 10 6 9 13 11 16 6 0 0 0 0 0 0 7 12 6 3 1
0 0 0 0 0 0 1 13 14 13 0 0 0 0 0 0 0 0 0 0 0 0 0 8 5 11 13 3 0 6 0 0 0 0 0 0 0 0 2 5 3 1 5
0 0 0 0 0 5 9 13 6 1 0 0 0 0 0 0 0 0 0 0 0 0 0 0 3 8 7 4 0 0 0 0 0 0 0 0 0 0 0 4 5 3 6
0 0 0 0 7 7 7 18 0 0 0 0 0 0 0 0 0 0 0 0 2 3 3 7 5 0 0 0 0 0 0 0 0 0 0 0 0 0 0 1 1 1 4
0 0 1 5 14 4 0 6 0 0 0 0 0 0 0 0 0 0 0 0 0 0 0 0 0 0 0 0 0 0 0 0 0 0 1 2 0 0 0 0 0 0 2
0 0 0 0 0 0 1 0 0 0 0 0 0 0 0 0 0 0 0 0 0 0 0 0 0 0 0 0 0 0 0 0 0 0 1 2 2 3 2 0 0 2 3
0 0 0 0 0 0 1 0 0 0 0 0 0 0 0 0 0 0 0 0 0 0 0 0 0 0 0 0 0 0 0 0 0 0 0 1 2 2 2 1 2 2 2
CIN
-0 -0 -0 -0 -0 -0 -0 -0 -0 -0 -0 -0 -0 -0 -0 -0 -0 -0 -0 -0 -0 -0 -0 -0 -36 -19 -31 -29 -0 -13 -19 -1 -1 -3 -0 -0 -0 -0 -0 -0 -0 -0 -0
-0 -0 -0 -0 -0 -0 -0 -0 -0 -0 -0 -0 -0 -0 -0 -0 -0 -0 -0 -0 -0 -0 -0 -0 -2 -0 -3 -40 -16 -1 -7 -0 -0 -0 -0 -0 -0 -0 -0 -0 -0 -0 -0
-0 -0 -0 -0 -0 -0 -0 -0 -0 -0 -0 -0 -0 -0 -0 -0 -0 -0 -0 -0 -19 -12 -0 -0 -0 -0 -0 -0 -2 -0 -0 -0 -0 -0 -0 -0 -0 -0 -0 -0 -0 -0 -0
-0 -0 -0 -0 -0 -0 -0 -0 -0 -0 -0 -0 -0 -0 -0 -0 -0 -0 -0 -0 -54 -21 -0 -0 -0 -0 -2 -13 -3 -0 -0 -0 -22 -0 -0 -0 -0 -0 -0 -0 -0 -0 -0
-0 -0 -0 -0 -0 -0 -0 -0 -0 -0 -0 -0 -0 -0 -0 -0 -0 -0 -0 -0 -36 -18 -0 -0 -0 -12 -9 -9 -0 -0 -0 -0 -0 -0 -0 -0 -0 -0 -0 -0 -0 -0 -0
-0 -0 -0 -0 -0 -0 -0 -0 -0 -0 -0 -0 -0 -0 -27 -83 -0 -0 -0 -0 -87 -37 -41 -0 -0 -0 -0 -0 -18 -11 -0 -0 -0 -0 -0 -0 -0 -0 -0 -0 -0 -0 -0
-0 -0 -0 -0 -0 -0 -0 -0 -0 -0 -0 -0 -0 -0 -0 -46 -0 -0 -0 -0 -0 -58 -29 -86 -0 -0 -0 -0 -0 -58 -0 -0 -0 -1 -0 -0 -0 -0 -0 -0 -0 -0 -0
-0 -0 -0 -0 -0 -0 -0 -70 -143 -114 -109 -54 -0 -109 -0 -0 -0 -0 -0 -0 -0 -56 -19 -39 -19 -0 -0 -0 -0 -0 -0 -106 -63 -4 -0 -6 -0 -0 -0 -0 -0 -0 -0
-0 -0 -0 -0 -0 -90 -0 -23 -117 -103 -117 -117 -0 -0 -0 -0 -0 -0 -0 -0 -0 -0 -72 -69 -47 -0 -0 -0 -0 -0 -0 -73 -0 -19 -22 -34 -45 -0 -0 -0 -0 -0 -0
-0 -0 -0 -9 -89 -54 -0 -104 -103 -113 -105 -124 -117 -0 -0 -0 -0 -0 -0 -0 -0 -0 -0 -0 -0 -68 -0 -0 -0 -0 -0 -0 -0 -15 -51 -21 -1 -0 -0 -0 -0 -1 -2
-0 -0 -23 -77 -11 -0 -0 -0 -112 -104 -23 -88 -0 -0 -0 -0 -0 -0 -0 -0 -0 -0 -0 -0 -46 -0 -58 -0 -0 -0 -0 -0 -0 -49 -24 -30 -29 -10 -16 -21 -0 -0 -8
-0 -0 -92 -0 -0 -0 -0 -0 -130 -79 -138 -0 -0 -0 -0 -0 -0 -0 -0 -0 -0 -0 -0 -0 -34 -32 -44 -72 -0 -0 -0 -12 -50 -28 -20 -47 -19 -23 -13 -34 -0 -0 -0
-0 -4 -0 -0 -0 -0 -0 -113 -0 -0 -0 -0 -0 -0 -0 -0 -0 -0 -0 -0 -0 -0 -0 -0 -78 -72 -85 -70 -0 -0 -0 -0 -2 -30 -13 -31 -0 -7 -55 -26 -41 -0 -0
-0 -0 -0 -0 -0 -0 -0 -0 -24 -0 -0 -0 -0 -0 -0 -0 -0 -0 -0 -0 -8 -0 -0 -105 -70 -74 -79 -70 -83 -65 -55 -9 -1 -0 -0 -0 -27 -11 -9 -3 -0 -20 -17
-0 -0 -0 -0 -0 -0 -0 -0 -125 -126 -126 -44 -0 -0 -0 -0 -0 -0 -0 -0 -31 -0 -0 -55 -52 -57 -38 -33 -64 -50 -28 -23 -10 -0 -0 -0 -0 -0 -0 -9 -16 -53 -31
-0 -0 -0 -0 -0 -0 -0 -0 -0 -61 -197 -0 -0 -0 -0 -0 -0 -0 -0 -0 -0 -0 -33 -26 -13 -14 -7 -9 -12 -15 -11 -5 -4 -0 -17 -4 -0 -0 -0 -0 -0 -0 -13
-0 -0 -0 -0 -0 -0 -0 -123 -65 -0 -0 -0 -0 -0 -0 -0 -0 -0 -0 -0 -0 -0 -33 -43 -25 -15 -13 -6 -6 -3 -7 -26 -0 -14 -6 -9 -0 -5 -0 -0 -0 -13 -6
-0 -0 -0 -0 -0 -0 -0 -103 -0 -0 -0 -0 -0 -0 -0 -0 -0 -0 -0 -0 -0 -52 -33 -17 -20 -16 -20 -22 -23 -17 -0 -0 -0 -0 -5 -0 -2 -0 -0 -0 -0 -0 -1
-0 -0 -0 -0 -0 -0 -0 -0 -148 -0 -136 -0 -0 -0 -0 -0 -0 -0 -0 -0 -0 -0 -34 -42 -44 -17 -25 -23 -33 -11 -16 -9 -0 -0 -0 -0 -5 -0 -0 -0 -1 -0 -0
-0 -0 -0 -0 -0 -0 -90 -103 -113 -67 -115 -0 -0 -0 -0 -0 -0 -0 -0 -0 -0 -0 -24 -23 -33 -48 -54 -50 -37 -34 -29 -36 -0 -0 -0 -0 -0 -0 -0 -0 -0 -0 -0
-89 -0 -0 -0 -0 -50 -116 -94 -91 -108 -158 -0 -0 -0 -0 -0 -0 -0 -0 -0 -0 -0 -1 -42 -43 -31 -43 -49 -49 -28 -2 -0 -0 -0 -0 -0 -0 -0 -0 -4 -6 -0 -0
-0 -0 -0 -0 -6 -117 -117 -112 -146 -141 -0 -0 -0 -0 -0 -0 -0 -0 -0 -0 -0 -0 -0 -75 -62 -54 -62 -32 -0 -0 -0 -0 -0 -0 -0 -0 -0 -0 -0 -0 -0 -0 -0
-0 -0 -0 -0 -133 -117 -139 -119 -0 -0 -0 -0 -0 -0 -0 -0 -0 -0 -0 -1 -42 -41 -60 -61 -72 -9 -0 -0 -0 -0 -0 -0 -0 -0 -0 -0 -0 -0 -0 -0 -0 -0 -0
-0 -0 -126 -121 -127 -126 -0 -149 -0 -0 -0 -0 -0 -0 -0 -0 -0 -0 -0 -0 -0 -7 -11 -0 -0 -0 -0 -0 -0 -0 -0 -0 -0 -0 -0 -0 -0 -0 -0 -0 -0 -0 -0
-0 -0 -0 -0 -0 -0 -157 -0 -0 -0 -0 -0 -0 -0 -0 -0 -0 -0 -0 -0 -0 -0 -0 -0 -0 -0 -0 -0 -0 -0 -0 -0 -0 -0 -0 -0 -0 -0 -0 -0 -0 -0 -0
-0 -0 -43 -71 -0 -0 -121 -0 -0 -0 -0 -0 -0 -0 -0 -0 -0 -0 -0 -0 -0 -0 -0 -0 -0 -0 -0 -0 -0 -0 -0 -0 -0 -0 -0 -0 -0 -0 -0 -0 -0 -0 -0
Wind_Speed
7 5 5 5 4 4 3 1 2 2 4 4 3 3 3 4 5 6 6 6 7 7 6 6 7 6 5 5 4 5 4 3 4 2 1 2 4 4 5 7 7 7 8
7 6 5 5 4 3 2 2 2 3 4 3 3 3 3 3 4 6 7 7 7 7 7 7 7 7 8 7 5 8 6 5 3 5 0 2 1 2 5 6 6 6 6
7 6 5 5 4 3 2 3 3 3 4 4 3 3 3 4 5 5 5 7 7 5 6 7 7 8 9 7 7 7 7 4 3 2 0 1 2 2 2 2 5 6 5
7 5 6 5 5 3 3 3 4 3 4 4 4 4 3 3 4 6 7 7 5 4 5 6 7 7 8 8 7 7 8 5 2 2 1 0 1 1 1 1 3 4 6
7 6 6 5 3 3 3 3 4 4 4 4 5 4 4 3 3 5 6 6 7 6 4 6 6 10 13 11 5 5 6 5 3 2 1 1 2 2 2 2 3 2 2
7 7 5 4 3 4 4 4 4 4 3 4 5 4 4 3 5 9 8 5 6 5 6 6 7 9 10 13 12 9 6 4 3 2 2 2 2 1 2 1 2 3 2
8 6 5 5 5 5 4 4 4 4 2 4 5 4 5 3 5 6 9 5 6 5 4 5 6 6 9 8 10 9 7 7 4 1 2 1 2 1 1 2 2 1 2
8 5 5 5 5 4 4 5 4 3 4 3 4 4 3 2 5 5 6 4 5 5 4 4 4 6 8 9 8 7 6 5 6 4 2 2 1 1 1 2 2 2 1
8 6 6 6 5 5 5 5 3 3 2 3 3 3 3 3 5 6 4 4 5 6 5 5 3 4 8 9 6 8 8 6 7 8 5 4 2 2 3 3 2 1 1
8 8 7 6 5 5 5 4 2 2 2 3 3 2 2 2 5 6 5 3 5 5 7 6 6 4 7 8 4 5 7 7 8 8 3 3 3 3 4 3 2 2 1
7 5 5 5 5 5 3 2 1 2 2 1 2 2 2 2 3 6 6 3 3 5 5 6 4 7 5 6 6 5 5 8 8 4 3 3 2 2 2 1 2 2 1
6 5 5 4 4 3 3 2 1 2 1 1 1 1 1 1 4 5 6 5 5 3 5 4 5 8 6 6 5 7 8 7 4 4 3 2 3 3 3 2 3 2 2
5 5 4 5 4 4 3 3 1 2 1 1 1 1 1 2 3 5 7 7 6 3 4 6 8 6 7 5 6 8 6 4 5 4 5 2 3 3 4 4 2 2 3
5 4 4 4 4 2 2 2 3 3 3 3 3 3 2 2 2 2 3 5 5 3 4 4 4 4 4 4 4 4 3 4 3 5 4 5 3 3 3 1 1 1 1
5 4 4 2 2 2 3 3 4 4 5 4 5 3 3 3 3 4 1 4 5 5 6 2 3 3 4 5 5 4 3 3 3 3 4 4 4 3 2 2 1 1 2
5 3 2 2 2 2 3 3 7 7 8 5 4 6 5 6 7 6 4 5 5 5 2 3 5 5 5 5 5 5 5 7 6 5 3 4 4 4 4 2 1 2 2
5 4 3 3 2 3 3 3 3 2 2 5 8 9 8 6 8 6 4 5 5 5 2 3 4 4 4 4 4 3 5 5 6 5 5 4 5 3 4 4 3 3 2
4 6 3 2 2 3 3 1 0 1 3 3 4 5 7 5 7 4 2 1 3 3 2 4 5 5 4 4 4 2 4 5 5 5 6 7 5 6 2 4 5 4 4
4 3 3 2 2 3 2 1 2 2 3 3 1 1 3 5 3 1 1 1 1 3 4 4 4 5 4 4 3 4 4 3 3 5 6 6 6 5 6 3 2 4 4
4 6 4 2 2 2 2 2 2 3 3 3 2 1 1 1 0 0 2 1 2 3 4 5 4 4 4 4 5 4 3 3 4 5 6 6 7 6 5 5 4 5 4
2 3 3 2 2 3 2 2 3 3 2 1 1 1 4 1 1 1 1 1 2 3 5 5 5 5 5 4 4 3 2 4 4 5 6 6 7 7 6 6 5 5 5
3 3 3 3 3 3 3 3 3 3 1 2 2 1 3 3 2 1 1 2 3 3 3 4 4 4 4 4 4 4 4 5 6 6 7 7 6 6 6 5 6 5 5
3 3 2 3 3 4 3 3 2 3 3 4 4 3 2 2 2 1 2 3 3 3 3 3 4 3 3 4 4 4 5 5 6 6 7 7 6 6 6 6 5 5 6
2 3 4 4 3 3 4 4 4 3 4 4 5 4 1 1 1 3 4 4 5 4 3 3 3 5 4 4 4 5 4 5 5 6 7 6 6 6 6 6 6 6 6
3 4 4 4 5 4 3 3 3 4 5 4 2 2 2 2 2 4 4 4 5 5 4 4 4 5 6 8 8 9 8 7 7 6 5 6 8 9 7 6 7 6 7
4 3 3 4 4 4 4 3 1 5 6 3 2 3 4 2 2 3 4 5 5 4 4 4 5 7 9 7 8 8 8 9 9 8 6 5 6 6 5 7 9 6 7
Wind_Direction
183 171 179 188 181 166 169 182 252 286 297 308 312 330 342 346 344 339 333 322 330 324 333 335 327 327 320 324 308 304 282 270 265 272 67 1 6 354 355 16 17 16 23
179 163 189 186 175 157 162 232 260 284 294 297 304 308 319 339 344 342 334 331 330 327 334 339 345 342 337 327 322 314 298 271 256 286 83 22 25 7 358 10 27 24 1
166 168 191 196 185 166 196 252 264 277 274 304 306 285 306 341 336 329 323 326 326 330 334 341 330 338 336 332 323 328 313 290 228 266 75 354 1 5 349 18 34 23 21
165 171 195 196 190 180 213 250 267 271 277 293 290 283 294 310 324 327 337 331 316 336 345 344 332 329 324 330 333 333 337 346 46 88 64 4 327 293 33 340 38 39 35
166 183 207 194 177 188 227 253 268 275 265 276 290 297 287 284 308 321 338 337 330 338 331 352 337 333 347 347 331 333 350 358 27 22 18 324 340 350 350 339 349 352 37
167 202 193 166 183 209 224 240 261 276 276 279 283 297 295 269 295 348 356 335 333 316 333 340 340 341 343 350 355 3 8 6 360 8 342 339 343 324 311 311 326 3 358
176 198 180 187 198 220 231 240 256 264 262 279 285 286 282 314 343 344 354 342 326 319 313 336 340 341 342 346 348 342 357 357 2 301 331 316 306 292 314 310 334 326 323
183 187 191 193 206 215 229 239 248 245 256 279 281 284 307 312 330 344 344 338 332 325 322 320 328 334 344 349 345 349 340 334 342 319 289 279 258 238 254 289 296 313 277
180 194 206 200 209 206 230 240 231 231 244 259 277 310 309 313 330 339 349 341 331 323 333 327 315 328 335 349 356 350 343 347 341 334 286 274 213 230 273 303 342 299 310
181 204 203 206 213 214 216 244 227 232 251 280 305 341 336 336 342 8 14 342 334 329 326 323 330 328 334 347 358 350 344 340 340 336 341 296 248 241 269 262 286 283 260
184 186 205 204 214 198 180 219 221 258 283 323 2 8 52 21 349 4 6 339 321 315 316 323 326 327 338 356 357 354 320 310 322 326 325 327 355 294 274 276 297 317 296
160 191 210 189 176 160 178 245 253 245 178 20 35 32 22 3 345 337 334 325 319 306 313 313 316 322 322 335 360 345 345 342 340 336 332 324 317 304 306 310 284 263 237
166 204 186 164 163 149 176 233 241 223 174 207 199 260 293 281 316 322 308 316 323 313 292 304 315 354 348 324 337 356 354 353 348 342 328 310 302 284 294 284 232 263 277
174 158 137 158 144 161 201 228 234 222 215 208 227 236 228 264 276 283 330 335 333 332 339 324 333 338 338 317 335 339 339 3 344 340 319 313 307 316 309 290 286 281 277
125 127 144 148 178 221 245 238 228 224 197 207 218 191 188 226 231 212 257 333 330 314 319 338 341 347 346 347 347 343 339 349 353 340 335 326 326 319 310 303 287 285 252
127 143 169 190 206 227 253 277 247 245 257 258 215 182 206 222 216 216 243 299 324 342 333 346 335 337 348 355 348 345 358 349 343 338 326 334 322 312 309 304 283 263 278
149 171 193 212 221 243 249 245 302 292 208 218 220 212 191 197 210 227 250 316 12 7 358 333 319 327 337 333 327 348 342 345 340 351 339 332 319 321 343 316 276 262 263
161 184 196 212 246 260 249 217 226 281 303 303 223 210 224 232 219 212 286 309 353 12 339 329 326 328 340 323 306 315 332 343 349 349 358 353 351 340 351 3 1 350 332
162 184 199 229 257 247 250 267 247 272 261 258 276 123 195 224 291 339 157 42 342 335 331 317 320 320 321 313 307 304 292 319 336 346 356 349 339 337 334 334 332 327 340
186 192 182 204 270 259 242 273 265 261 262 260 307 18 107 82 236 13 67 48 354 319 319 316 308 306 313 311 314 318 302 322 345 345 345 338 330 321 309 312 327 329 323
184 161 192 224 260 291 297 285 272 289 280 1 103 213 192 132 93 57 28 350 307 310 314 309 309 312 312 324 329 338 342 344 347 338 333 331 326 315 311 307 305 305 302
172 189 197 224 243 259 253 272 285 281 224 158 163 124 138 92 105 60 333 303 307 291 286 286 296 324 353 0 11 12 1 350 339 333 324 319 315 309 304 297 299 302 298
168 190 226 244 244 256 265 272 257 223 186 167 170 164 165 170 177 217 263 303 293 291 305 331 354 43 43 39 32 21 355 342 330 322 315 313 309 305 305 298 297 297 295
153 213 241 247 269 288 253 247 220 201 180 176 184 191 136 36 290 290 289 303 320 329 10 31 52 61 39 20 8 1 350 339 323 315 318 308 308 306 296 290 286 286 287
221 243 245 248 257 272 286 249 214 210 189 184 140 105 96 61 322 329 333 326 325 336 56 67 51 35 25 6 359 350 339 317 324 313 303 296 297 298 289 287 287 288 288
250 263 287 296 282 258 249 230 236 53 64 77 51 33 58 346 342 350 352 12 18 37 54 55 47 27 10 358 352 340 330 330 329 320 311 289 291 289 286 287 289 288 284